This is the latest recevied weather packets stored in our database for station/object KW4UJ. If no packets are shown the sender has not sent any weather packets the latest 10 day(s).
| Time | Temp. | Humidity | Pressure | Rain* | Wind** | Luminosity | Snow |
|---|---|---|---|---|---|---|---|
| 1788560514 | 24.44° C | 95% | 1012.2 hPa | 0 mm | - | 40 W/m² | - |
| 1788560213 | 24.44° C | 96% | 1012.3 hPa | 0 mm | - | 49 W/m² | - |
| 1788559909 | 24.44° C | 96% | 1012.2 hPa | 0 mm | - | 61 W/m² | - |
| 1788559604 | 24.44° C | 96% | 1012.5 hPa | 0 mm | - | 68 W/m² | - |
| 1788559299 | 23.89° C | 96% | 1012.5 hPa | 0 mm | - | 73 W/m² | - |
| 1788558999 | 23.89° C | 96% | 1012.7 hPa | 0 mm | - | 71 W/m² | - |
| 1788558695 | 23.89° C | 96% | 1012.6 hPa | 0 mm | - | 66 W/m² | - |
| 1788558395 | 23.89° C | 96% | 1012.8 hPa | 0 mm | - | 60 W/m² | - |
| 1788558091 | 23.89° C | 96% | 1012.8 hPa | 0 mm | - | 56 W/m² | - |
| 1788557789 | 23.89° C | 96% | 1012.5 hPa | 0 mm | - | 51 W/m² | - |
| 1788557486 | 23.89° C | 96% | 1012.8 hPa | 0 mm | - | 42 W/m² | - |
| 1788557186 | 23.89° C | 96% | 1012.9 hPa | 0 mm | - | 30 W/m² | - |
| 1788556881 | 23.33° C | 95% | 1012.7 hPa | 0 mm | - | 20 W/m² | - |
| 1788556580 | 23.33° C | 95% | 1012.8 hPa | 0 mm | - | 14 W/m² | - |
| 1788556276 | 23.33° C | 94% | 1013.1 hPa | 0 mm | - | 11 W/m² | - |
| 1788555975 | 23.89° C | 93% | 1013 hPa | 3.05 mm | - | 8 W/m² | - |
| 1788555671 | 23.89° C | 92% | 1013 hPa | 3.05 mm | - | 7 W/m² | - |
| 1788555367 | 23.89° C | 90% | 1013.2 hPa | 1.27 mm | - | 6 W/m² | - |
| 1788555063 | 25° C | 87% | 1013.1 hPa | 1.27 mm | - | 7 W/m² | - |
| 1788554759 | 27.78° C | 80% | 1013.6 hPa | 0 mm | - | 2 W/m² | - |
| 1788554455 | 28.89° C | 77% | 1013.4 hPa | 0 mm | - | 2 W/m² | - |
| 1788554150 | 29.44° C | 72% | 1012.9 hPa | 0 mm | - | 8 W/m² | - |
| 1788553847 | 30° C | 70% | 1013 hPa | 0 mm | - | 11 W/m² | - |
| 1788553543 | 30° C | 69% | 1012.9 hPa | 0 mm | - | 11 W/m² | - |
| 1788553239 | 30° C | 69% | 1013.1 hPa | 0 mm | - | 17 W/m² | - |
* Rain latest hour (hover to see other rain measurements)
** Current wind speed in m/s (hover to see current wind gust speed)